Location: Strawberry
(45.6646°N, 111.9596°W)
Time: 12:15:29
(UTC+00:00)

Transit 4A - Pass Details

Date: 05 October 2022
Orbit: 871 x 973 km, 66.8° (Epoch: 26 November)

Event Time Altitude Azimuth Distance (km) Brightness Sun altitude
Rises 12:41:59 0° 330° (NNW) 3,503 10.6 -9.5°
Reaches altitude 10° 12:44:39 10° 337° (NNW) 2,550 10.0 -9.0°
Maximum altitude 12:50:11 41° 47° (NE) 1,249 9.1 -8.0°
Drops below altitude 10° 12:55:39 10° 118° (ESE) 2,516 11.3 -7.1°
Sets 12:58:16 0° 125° (SE) 3,452 11.9 -6.6°
